Weather in Loznaya

Russia / Belgorod Oblast     49°57′17″N   38°45′35″E
temp.,
°C
wind,
m/s
gust,
m/s
humid.,
%
clouds,
%
prec.,
mm/h
press.,
hPa
HPBL,
m
23 october, sat
sat2300:00+11sw3772100 0.0 1014105
03:00+12w3559100 0.0 1014125
06:00+10sw226267 0.0 101411
09:00+12s3559100 0.0 1014201
12:00+16wsw6845100 0.0 1014843
15:00+16w71136100 0.0 10131644
18:00+13w493992 0.0 1014275
21:00+9wnw4114658 0.0 1016308
24 october, sun
sun2400:00+6wnw38640 0.0 1018170
03:00+4wnw38745 0.0 1019178
06:00+2wnw3577100 0.0 1020107
09:00+5wnw4865100 0.0 1021403
12:00+8wnw5750100 0.0 10201318
15:00+10wnw573871 0.0 10181887
18:00+7wnw365098 0.0 1019171
21:00+5nw5972100 0.4 1021941
25 october, mon
mon2500:00+3nw6108795 0.2 1021817
03:00+1nw611765 0.2 1023567
06:000nnw611815 0.0 1025566
09:00+1nnw7107236 0.0 1027807
12:00+4n784972 0.0 10281292
15:00+5n78395 0.0 10291360
18:00+2nnw374735 0.0 1031134
21:000nnw34535 0.0 103258
26 october, tue
tue2600:00−1nnw22570 0.0 103423
03:00−2nnw22600 0.0 103413
06:00−2nw11630 0.0 103410
09:00+1w11493 0.0 1035149
12:00+6sw22325 0.0 1034664
15:00+8sw33255 0.0 1032930
18:00+4sw33345 0.0 103218
21:00+2sw33391 0.0 103130
27 october, wed
wed2700:00+1ssw33424 0.0 103141
03:000ssw33455 0.0 103135
06:00−1ssw33475 0.0 103036
09:00+3sw353778 0.0 1030184
12:00+9sw462489 0.0 1028685
15:00+10ssw462290 0.0 1025863
18:00+6ssw3531100 0.0 102458
21:00+4sw3536100 0.0 102467